Home > Weather > Porto Acre > Past weeks

Flag for Brazil Weather for the Past 2 Weeks in Porto Acre, Acre, Brazil

Now
73 °F

Clear.


Feels Like: 70 °F
Forecast: 76 / 92 °F
Wind: 2 mph from Northwest

Location: Rio Branco Airport

Current Time: Feb 13, 2016 at 6:59:57 AM

Latest Report: Feb 13, 2016 at 6:00 AM


Visibility: 10 mi

Pressure: 29.89 "Hg

Humidity: 94%

Dew point: 72 °F

Location of Porto AcreLocation

Historic Weather in Porto Acre — Graph

°F

Porto Acre Temperature Yesterday

Maximum temperature yesterday: 84 °F (at 12:00 PM)
Minimum temperature yesterday: 73 °F (at 10:00 PM)
Average temperature yesterday: 77 °F

High & Low Weather Summary for the Past Weeks

 TemperatureHumidityPressure
High90 °F (Feb 10, 1:00 PM)100% (Jan 29, 5:00 AM)30.01 "Hg (Jan 29, 5:00 AM)
Low72 °F (Feb 1, 12:00 AM)62% (Feb 5, 2:00 PM)29.71 "Hg (Jan 30, 4:00 PM)
Average79 °F87%29.87 "Hg
* Reported Jan 29 5:00 AM — Feb 13 5:00 AM, Porto Acre, Weather by CustomWeather, © 2016

Note: Actual official high and low records may vary slightly from our data, if they occured in-between our weather recording intervals... More about our weather records

Advertising

Porto Acre Weather History for the Previous 24 Hours

 ConditionsComfort  
Time TempWeatherWind HumidityBarometerVisibility
5:00 AM
Sat, Feb 13
73 °FClear.2 mph94%29.86 "Hg10 mi
4:00 AM73 °FClear.No wind94%29.86 "Hg10 mi
3:00 AM73 °FClear.2 mph100%29.86 "Hg10 mi
2:00 AM73 °FClear.No wind94%29.86 "Hg10 mi
1:00 AM73 °FClear.No wind94%29.86 "Hg10 mi
12:00 AM73 °FClear.No wind94%29.86 "Hg10 mi
11:00 PM
Fri, Feb 12
73 °FClear.3 mph94%29.89 "Hg10 mi
10:00 PM73 °FClear.1 mph94%29.89 "Hg10 mi
9:00 PM75 °FClear.2 mph94%29.86 "Hg10 mi
8:00 PM75 °FClear.6 mph94%29.86 "Hg10 mi
7:00 PM75 °FClear.No wind94%29.83 "Hg10 mi
6:00 PM77 °FSunny.3 mph89%29.80 "Hg10 mi
5:00 PM79 °FSunny.3 mph79%29.83 "Hg10 mi
4:00 PM77 °FScattered clouds.8 mph83%29.83 "HgN/A
3:00 PM79 °FBroken clouds.10 mph89%29.86 "HgN/A
2:00 PM79 °FBroken clouds.6 mph94%29.89 "HgN/A
1:00 PM77 °FHeavy rain. Partly sunny.13 mph89%29.92 "Hg2 mi
12:00 PM84 °FBroken clouds.1 mph74%29.92 "HgN/A
11:00 AM82 °FPartly sunny.6 mph79%29.98 "HgN/A
10:00 AM82 °FPartly sunny.7 mph79%29.98 "HgN/A
9:00 AM81 °FBroken clouds.7 mph84%30.01 "HgN/A
8:00 AM79 °FSunny.6 mph84%29.98 "Hg10 mi
7:00 AM77 °FSunny.3 mph94%29.98 "Hg10 mi
6:00 AM75 °FClear.No wind94%29.95 "Hg10 mi
Weather by CustomWeather, © 2016

See weather overviewHow to use our weather pages